Content
SEND FEEDBACK

Daily
Averages
Monthly
Summary
Canada

QUEBEC CITY, QUEBEC


Home > North America > Canada > Quebec
Elevation: 239 feet     Latitude: 46 48N     Longitude: 071 23W

WEATHER
 
SELECT A DAY
Number of Records: 192,044;   Date Range: 6/30/96 - 7/27/14
 
SHARE

PRINT THIS DATA

[ ← Previous Day ]
WEATHER ALMANAC - JANUARY 20, 2014
[ Next Day → ]
[ °C ]   °F
Weather ElementAverageHighLow
Temperature4.7 °F20 °F (1:00 am)-7.6 °F (11:00 pm)
Dewpoint-7.8 °F11 °F (1:00 am)-16.6 °F (8:00 pm)
Humidity52.5 %65 % (11:00 pm)33 % (10:00 am)
Barometer29.63 in29.91 in (11:00 pm)29.30 in (1:00 am)
Wind Speed12.5 mph24.2 mph (1:00 am)
Wind Gust35.7 mph (1:00 am)
Weather ElementAverage
Visibility21.5 mi
Wind DirectionWSW (263.5 °)

Weather ElementTotal
Precipitation---
Heating Degree Days58.8 (Base 65)
Averaged from 31 records on January 20, 2014
WEATHER CONDITIONS BREAKOUT
WIND DIRECTION BREAKOUT
WEATHER BY HOUR - JANUARY 20, 2014
[ °C ]   °F
Local TimeTemperatureDewpointHumidityBarometerVisibilityWind DirectionWind SpeedGust SpeedPrecipitationEventsConditions
1:00 AM20.0 °F11.0 °F57 %29.30 inWest (280°)23.0 mph
1:00 AM19.4 °F8.6 °F63 %29.30 in15.0 miWest (260°)24.2 mph35.7 mphSnowLow Drifting Snow
2:00 AM15.8 °F5.0 °F62 %29.37 in15.0 miWest (280°)18.4 mph29.9 mphSnowLow Drifting Snow
3:00 AM14.0 °F3.2 °F62 %29.41 in15.0 miWest (260°)20.7 mph27.6 mphSnowLow Drifting Snow
4:00 AM13.0 °F1.0 °F45 %29.43 inWest (260°)11.5 mph
4:00 AM12.2 °F-0.4 °F57 %29.43 in15.0 miWest (260°)15.0 mphSnowLow Drifting Snow
5:00 AM10.4 °F-0.4 °F62 %29.47 in15.0 miWest (280°)12.7 mphMostly Cloudy
6:00 AM6.8 °F-5.8 °F56 %29.50 in15.0 miWest (280°)11.5 mphMostly Cloudy
7:00 AM6.0 °F-5.0 °F45 %29.54 inWest (260°)11.5 mph
7:00 AM5.0 °F-5.8 °F61 %29.54 in30.0 miWest (260°)17.3 mphMostly Cloudy
8:00 AM5.0 °F-7.6 °F56 %29.58 in30.0 miWest (280°)10.4 mphScattered Clouds
9:00 AM3.2 °F-9.4 °F56 %29.61 in30.0 miNW (310°)8.1 mphMostly Cloudy
10:00 AM3.0 °F-12.0 °F33 %29.64 inWNW (300°)10.4 mph
10:00 AM3.2 °F-11.2 °F51 %29.64 in30.0 miWNW (300°)10.4 mphScattered Clouds
11:00 AM5.0 °F-11.2 °F47 %29.64 in30.0 miWNW (300°)9.2 mphMostly Cloudy
12:00 PM5.0 °F-11.2 °F47 %29.62 in30.0 miWest (280°)8.1 mphPartly Cloudy
1:00 PM5.0 °F-10.0 °F33 %29.61 inWNW (290°)9.2 mph
1:00 PM5.0 °F-11.2 °F47 %29.61 in30.0 miWest (280°)8.1 mphPartly Cloudy
2:00 PM5.0 °F-9.4 °F52 %29.61 in30.0 miWSW (240°)13.8 mphMostly Cloudy
3:00 PM5.0 °F-7.6 °F56 %29.66 in30.0 miSW (230°)13.8 mphMostly Cloudy
4:00 PM4.0 °F-9.0 °F40 %29.70 inWSW (250°)12.7 mph
4:00 PM3.2 °F-9.4 °F56 %29.70 in30.0 miWSW (250°)15.0 mphMostly Cloudy
5:00 PM1.4 °F-11.2 °F56 %29.74 in15.0 miWest (260°)15.0 mphScattered Clouds
6:00 PM-0.4 °F-13.0 °F55 %29.78 in15.0 miWest (260°)11.5 mphPartly Cloudy
7:00 PM-1.0 °F-13.0 °F40 %29.82 inWSW (250°)11.5 mph
7:00 PM-2.2 °F-14.8 °F55 %29.82 in15.0 miWSW (250°)12.7 mphPartly Cloudy
8:00 PM-4.0 °F-16.6 °F55 %29.86 in15.0 miSW (230°)10.4 mphPartly Cloudy
9:00 PM-4.0 °F-16.6 °F55 %29.86 in15.0 miWSW (250°)9.2 mph17.3 mphClear
10:00 PM-5.0 °F-16.0 °F42 %29.88 inSW (230°)3.5 mph
10:00 PM-5.8 °F-16.6 °F60 %29.89 in15.0 miSW (220°)9.2 mphPartly Cloudy
11:00 PM-7.6 °F-16.6 °F65 %29.91 in15.0 miSW (230°)9.2 mphPartly Cloudy
Hourly data recorded from CYQB, located miles away from Quebec City, Quebec







STORIES FROM OUR PARTNERS